881  
SXUS52 KTAE 250915  
OSOTAE  
OSOTAE  
NORTH FLORIDA/SOUTH ALABAMA/SOUTHWEST GEORGIA WEATHER ROUNDUP  
NATIONAL WEATHER SERVICE TALLAHASSEE FLORIDA  
400 AM EST SUN FEB 25 2024  
 
NOTE: "FAIR" INDICATES FEW OR NO CLOUDS BELOW 12,000 FEET WITH NO  
SIGNIFICANT WEATHER AND/OR OBSTRUCTIONS TO VISIBILITY.  
 
!FLZ017-115-028-034-025-251000   
..NORTH FLORIDA
 
 
 
CITY SKY/WX TMP DP RH WIND PRES REMARKS  
TALL INTL ARPT CLEAR 41 38 89 CALM 30.11R  
FSU LOVE BLDG N/A 52 43 71 N3 N/A  
APALACHICOLA CLEAR 55 52 89 N6 30.10S  
PERRY NOT AVBL  
CROSS CITY CLEAR 45 43 93 CALM 30.11R  
JACKSONVILLE CLEAR 47 36 65 NW3 30.09R  

 
 
!FLZ112-006-005-002-011-251000   
..FLORIDA PANHANDLE
 
 
 
CITY SKY/WX TMP DP RH WIND PRES REMARKS  
MARIANNA CLEAR 43 41 93 CALM 30.11S  
BONIFAY NOT AVBL  
PANAMA CITY NW CLEAR 46 41 82 NW7 30.10S WCI 42  
TYNDALL AFB CLEAR 54 46 75 N6 30.06S  
TYND DRONE APT CLEAR 54 47 78 N8 30.06S  
DE FUNIAK SPR NOT AVBL  
EGLIN AFB CLEAR 49 35 59 N6 30.11F  
DESTIN CLEAR 54 37 52 N7 30.12S  
HURLBURT CLEAR 46 41 83 N6 30.11S WCI 43  
CRESTVIEW CLEAR 37 34 89 CALM 30.13F  
PENSACOLA CLEAR 47 32 56 N6 30.12S WCI 44  

 
 
!ALZ063-066-251000   
..SOUTH ALABAMA
 
 
 
CITY SKY/WX TMP DP RH WIND PRES REMARKS  
DOTHAN CLEAR 46 34 62 CALM 30.14S  
OZARK CAIRNS CLEAR 41 31 66 CALM 30.10S  
FT RUCKER HELI CLEAR 37 34 89 CALM 30.11S  
RUCKER HELI 3 CLEAR 45 31 58 CALM 30.09S  
RUCKER HELI 2 CLEAR 42 34 73 CALM 30.08S  
FLORALA APT CLEAR 41 32 70 CALM 30.14F  
ANDALUSIA CLEAR 42 34 73 CALM 30.11F  
TROY CLEAR 40 33 76 CALM 30.12F  
EUFALA CLEAR 35 31 85 CALM 30.12F FOG  
MOBILE CLEAR 45 32 60 N5 30.14S WCI 43  

 
 
!GAZ120>161-251000   
..SOUTHWEST AND SOUTH CENTRAL GEORGIA
 
 
 
CITY SKY/WX TMP DP RH WIND PRES REMARKS  
THOMASVILLE CLEAR 41 37 87 CALM 30.12S  
BAINBRIDGE CLEAR 43 38 83 CALM 30.12S  
MOODY AFB CLEAR 48 31 52 NE6 30.09R WCI 45  
VALDOSTA CLEAR 40 35 83 CALM 30.11R  
MOULTRIE CLEAR 46 34 64 CALM 30.12S  
BLAKELY CLEAR 39 34 81 CALM 30.12S  
ALBANY CLEAR 41 31 67 N3 30.13S  
TIFTON CLEAR 47 30 51 NE3 30.13S  
FITZGERALD CLEAR 42 31 64 CALM 30.12S  
CORDELE CLEAR 37 31 79 CALM 30.14S  
AMERICUS CLEAR 38 31 77 N3 30.10S  
HOMERVILLE CLEAR 39 35 84 CALM 30.12R  

 
 
!GMZ750-755-770-775-251000   
..COASTAL AND BUOY OBS
 
 
 
STATION/POSITION TIME TEMP WIND PRES VSBY WAVE  
AIR SEA DIR/SP/G HT/PER  
(UTC) (F) (DEG/KT/KT) (MB) (MI) (FT/S)  
KEATON BEACH NOT AVBL  
CEDAR KEY NOT AVBL  
C TOWER 0900 62 1019.6R  
APALACHICOLA BUO 0900 68 320/ 14/ 16 1019.8  
PANAMA CITY BUOY NOT AVBL  
MOBILE BUOY 0900 66 66 30/ 14/ 16 1020.7  
ORANGE BCH AL BU 0900 61 61 10/ 10/ 14 1020.3  

 
 
 
CLICK HERE TO GO TO PREVIOUS BULLETINS.

The Nexlab FL Page
The Nexlab GA Page
The Nexlab AL Page Main Text Page